TimeCDT,TemperatureF,Dew PointF,Humidity,Sea Level PressureIn,VisibilityMPH,Wind Direction,Wind SpeedMPH,Gust SpeedMPH,PrecipitationIn,Events,Conditions,WindDirDegrees,DateUTC
12:15 AM,71.6,64.4,78,29.89,10.0,South,10.4,-,N/A,,Clear,170,2012-10-22 05:15:00
12:36 AM,71.6,64.4,78,29.89,10.0,South,10.4,20.7,N/A,,Clear,170,2012-10-22 05:36:00
12:55 AM,71.6,64.4,78,29.89,10.0,South,10.4,19.6,N/A,,Clear,170,2012-10-22 05:55:00
1:15 AM,71.6,64.4,78,29.89,10.0,South,6.9,-,N/A,,Clear,170,2012-10-22 06:15:00
1:55 AM,71.6,64.4,78,29.89,10.0,South,8.1,16.1,N/A,,Clear,180,2012-10-22 06:55:00
2:15 AM,71.6,64.4,78,29.89,10.0,South,8.1,-,N/A,,Clear,180,2012-10-22 07:15:00
2:55 AM,71.6,64.4,78,29.89,10.0,South,6.9,-,N/A,,Clear,180,2012-10-22 07:55:00
3:15 AM,71.6,64.4,78,29.89,10.0,South,8.1,-,N/A,,Clear,190,2012-10-22 08:15:00
3:36 AM,71.6,64.4,78,29.89,10.0,South,11.5,-,N/A,,Clear,190,2012-10-22 08:36:00
3:55 AM,71.6,62.6,73,29.89,10.0,SSW,8.1,-,N/A,,Clear,200,2012-10-22 08:55:00
4:15 AM,71.6,62.6,73,29.89,10.0,SSW,8.1,-,N/A,,Clear,200,2012-10-22 09:15:00
4:55 AM,71.6,62.6,73,29.90,10.0,South,8.1,-,N/A,,Overcast,190,2012-10-22 09:55:00
5:15 AM,71.6,62.6,73,29.90,10.0,South,10.4,17.3,N/A,,Overcast,180,2012-10-22 10:15:00
5:35 AM,71.6,64.4,78,29.90,10.0,South,12.7,19.6,N/A,,Overcast,190,2012-10-22 10:35:00
5:55 AM,71.6,64.4,78,29.91,10.0,South,11.5,17.3,N/A,,Overcast,190,2012-10-22 10:55:00
6:15 AM,71.6,64.4,78,29.91,10.0,South,10.4,19.6,N/A,,Mostly Cloudy,190,2012-10-22 11:15:00
6:55 AM,69.8,62.6,78,29.92,10.0,SSW,11.5,17.3,N/A,,Clear,200,2012-10-22 11:55:00
7:15 AM,69.8,62.6,78,29.92,10.0,SSW,10.4,20.7,N/A,,Clear,200,2012-10-22 12:15:00
8:15 AM,69.8,62.6,78,29.94,10.0,SSW,11.5,18.4,N/A,,Clear,200,2012-10-22 13:15:00
8:35 AM,69.8,62.6,78,29.94,10.0,SSW,12.7,18.4,N/A,,Clear,200,2012-10-22 13:35:00
8:55 AM,71.6,62.6,73,29.95,10.0,South,12.7,20.7,N/A,,Clear,190,2012-10-22 13:55:00
9:16 AM,71.6,62.6,73,29.95,10.0,SSW,15.0,21.9,N/A,,Clear,200,2012-10-22 14:16:00
9:35 AM,71.6,62.6,73,29.95,10.0,South,15.0,20.7,N/A,,Clear,190,2012-10-22 14:35:00
9:55 AM,73.4,62.6,69,29.95,10.0,SSW,16.1,19.6,N/A,,Clear,200,2012-10-22 14:55:00
10:35 AM,73.4,62.6,69,29.95,10.0,South,12.7,23.0,N/A,,Clear,180,2012-10-22 15:35:00
10:55 AM,75.2,62.6,65,29.95,10.0,Calm,Calm,-,N/A,,Clear,0,2012-10-22 15:55:00
11:16 AM,75.2,64.4,69,29.94,10.0,SSW,16.1,24.2,N/A,,Clear,200,2012-10-22 16:16:00
11:35 AM,75.2,62.6,65,29.95,10.0,SSW,13.8,26.5,0.02,,Partly Cloudy,200,2012-10-22 16:35:00
11:55 AM,75.2,64.4,69,29.95,10.0,SSW,13.8,23.0,0.02,,Scattered Clouds,200,2012-10-22 16:55:00
12:16 PM,77.0,64.4,65,29.94,-9999.0,South,13.8,19.6,N/A,,Mostly Cloudy,190,2012-10-22 17:16:00
12:35 PM,75.2,64.4,69,29.95,10.0,South,12.7,24.2,N/A,,Overcast,190,2012-10-22 17:35:00
1:15 PM,73.4,64.4,73,29.95,10.0,SSW,13.8,18.4,N/A,,Overcast,200,2012-10-22 18:15:00
1:35 PM,73.4,64.4,73,29.95,10.0,South,8.1,17.3,N/A,,Overcast,190,2012-10-22 18:35:00
2:15 PM,73.4,64.4,73,29.94,10.0,SSW,12.7,19.6,N/A,,Overcast,200,2012-10-22 19:15:00
3:15 PM,73.4,64.4,73,29.94,10.0,SSW,10.4,18.4,N/A,,Overcast,200,2012-10-22 20:15:00
3:35 PM,73.4,64.4,73,29.94,10.0,SSW,10.4,18.4,N/A,,Overcast,200,2012-10-22 20:35:00
3:55 PM,73.4,64.4,73,29.94,10.0,SSW,9.2,17.3,N/A,,Overcast,200,2012-10-22 20:55:00
4:15 PM,73.4,64.4,73,29.94,10.0,SSW,9.2,16.1,N/A,,Overcast,200,2012-10-22 21:15:00
4:35 PM,75.2,64.4,69,29.93,10.0,South,8.1,-,N/A,,Mostly Cloudy,190,2012-10-22 21:35:00
4:55 PM,75.2,64.4,69,29.93,10.0,South,8.1,-,N/A,,Mostly Cloudy,190,2012-10-22 21:55:00
5:15 PM,73.4,64.4,73,29.93,10.0,South,9.2,16.1,N/A,,Scattered Clouds,180,2012-10-22 22:15:00
5:35 PM,73.4,64.4,73,29.93,10.0,South,11.5,-,N/A,,Scattered Clouds,190,2012-10-22 22:35:00
5:55 PM,73.4,64.4,73,29.94,10.0,SSW,9.2,-,N/A,,Partly Cloudy,200,2012-10-22 22:55:00
6:16 PM,71.6,64.4,78,29.94,10.0,South,9.2,-,N/A,,Clear,180,2012-10-22 23:16:00
6:35 PM,71.6,64.4,78,29.94,10.0,South,9.2,-,N/A,,Clear,170,2012-10-22 23:35:00
6:55 PM,71.6,64.4,78,29.92,10.0,South,10.4,-,N/A,,Mostly Cloudy,170,2012-10-22 23:55:00
7:16 PM,71.6,64.4,78,29.92,10.0,SSE,11.5,-,N/A,,Scattered Clouds,160,2012-10-23 00:16:00
7:35 PM,71.6,64.4,78,29.90,10.0,SE,11.5,-,N/A,,Clear,140,2012-10-23 00:35:00
7:55 PM,71.6,64.4,78,29.91,10.0,SSE,10.4,-,N/A,,Scattered Clouds,150,2012-10-23 00:55:00
8:55 PM,69.8,64.4,83,29.91,10.0,South,6.9,-,N/A,,Mostly Cloudy,170,2012-10-23 01:55:00
9:35 PM,69.8,64.4,83,29.93,10.0,South,5.8,-,N/A,,Mostly Cloudy,180,2012-10-23 02:35:00
10:16 PM,69.8,64.4,83,29.94,10.0,South,10.4,16.1,N/A,,Overcast,180,2012-10-23 03:16:00
10:35 PM,69.8,64.4,83,29.96,10.0,SSW,5.8,-,0.02,,Overcast,200,2012-10-23 03:35:00
11:15 PM,69.8,64.4,83,29.95,10.0,South,8.1,-,N/A,Thunderstorm,Mostly Cloudy,170,2012-10-23 04:15:00
11:35 PM,68.0,64.4,88,29.94,9.0,South,9.2,-,N/A,,Scattered Clouds,180,2012-10-23 04:35:00
11:55 PM,68.0,64.4,88,29.94,9.0,South,9.2,-,N/A,,Mostly Cloudy,180,2012-10-23 04:55:00